[Iaude] MPEC G195: 2024 GK5 [a=0.90,e=0.20,i=4.0,H=24.7]
    mpec at cfa.harvard.edu 
    mpec at cfa.harvard.edu
       
    Sat Apr 13 21:41:18 EDT 2024
    
    
  
M.P.E.C. 2024-G195                               Issued 2024 April 14, 01:39 UT
     The Minor Planet Electronic Circulars contain information on unusual
         minor planets, routine data on comets and natural satellites,
         and occasional editorial announcements.  They are published
    on behalf of Division F of the International Astronomical Union by the
          Minor Planet Center, Smithsonian Astrophysical Observatory,
                          Cambridge, MA 02138, U.S.A.
			  
             Prepared using the Tamkin Foundation Computer Network
                              MPC at CFA.HARVARD.EDU
            URL https://www.minorplanetcenter.net/    ISSN 1523-6714
                                    2024 GK5                                    
Observations:
     K24G05K*KC2024 04 12.20060 15 08 42.15 -12 30 33.1          19.7 GVEG195W94
     K24G05K KC2024 04 12.20676 15 08 41.12 -12 30 02.5          19.8 GVEG195W94
     K24G05K KC2024 04 12.21289 15 08 40.09 -12 29 33.7          19.2 GVEG195W94
     K24G05K KC2024 04 12.28247 15 08 27.98 -12 23 55.2          18.9 GVEG195X10
     K24G05K KC2024 04 12.28785 15 08 27.04 -12 23 28.5                VEG195X10
     K24G05K KC2024 04 12.29318 15 08 26.06 -12 23 01.6          18.0 GVEG195X10
     K24G05K  C2024 04 12.32356615 08 26.352-12 22 37.28         19.5 GVEG195H01
     K24G05K  C2024 04 12.32722215 08 25.734-12 22 19.48         19.5 GVEG195H01
     K24G05K  C2024 04 12.33658915 08 24.644-12 21 30.92         19.33GVEG195I52
     K24G05K  C2024 04 12.33698515 08 24.084-12 21 32.01         19.5 GVEG195H01
     K24G05K  C2024 04 12.33994615 08 24.090-12 21 14.51         20.33GVEG195I52
     K24G05K  C2024 04 12.34019915 08 24.072-12 21 12.92         20.48GVEG195I52
     K24G05K  C2024 04 12.34354515 08 23.500-12 20 57.23         19.69GVEG195I52
     K24G05K  C2024 04 12.34426615 08 22.846-12 20 56.43         19.7 GVEG195H01
     K24G05K KC2024 04 12.58241 15 07 55.66 -11 58 40.2          20.1 VqEG195E23
     K24G05K KC2024 04 12.59630 15 07 53.19 -11 57 30.4          19.9 VqEG195E23
     K24G05K KC2024 04 12.60324 15 07 51.99 -11 56 55.9          19.7 VqEG195E23
     K24G05K KC2024 04 12.91140 15 07 15.31 -11 33 22.5          20.0 GXEG195K83
     K24G05K KC2024 04 12.92151 15 07 13.68 -11 32 30.3          20.4 GXEG195K83
     K24G05K KC2024 04 12.93105 15 07 12.17 -11 31 42.3          19.2 GXEG195K83
     K24G05K KB2024 04 12.96101015 07 08.22 -11 29 09.0          19.0 GXEG195I93
     K24G05K KB2024 04 12.96709515 07 07.21 -11 28 37.5          19.2 GXEG195I93
     K24G05K KB2024 04 12.97296315 07 06.23 -11 28 07.9          19.5 GXEG195I93
     K24G05K KB2024 04 12.97642515 07 05.82 -11 27 47.8          19.7 GXEG195958
     K24G05K KB2024 04 12.98064315 07 05.14 -11 27 26.5          19.6 GXEG195958
     K24G05K KB2024 04 12.98485715 07 04.42 -11 27 05.4                XEG195958
     K24G05K KC2024 04 12.98879 15 07 03.01 -11 26 46.8          18.5 GXEG195M11
     K24G05K 1C2024 04 12.98992 15 07 01.87 -11 26 50.5          20.4 VXEG195033
     K24G05K 1C2024 04 12.99017 15 07 01.85 -11 26 49.3          20.9 VXEG195033
     K24G05K 1C2024 04 12.99040 15 07 01.80 -11 26 47.9          20.7 VXEG195033
     K24G05K 1C2024 04 12.99064 15 07 01.75 -11 26 46.8          20.3 VXEG195033
     K24G05K KC2024 04 12.99350 15 07 02.13 -11 26 22.4          19.4 GXEG195M11
     K24G05K KC2024 04 12.99822 15 07 01.41 -11 25 58.0          20.3 GXEG195M11
     K24G05K mC2024 04 13.24359115 06 32.590-11 03 57.70         19.66GVEG195I52
     K24G05K mC2024 04 13.24686715 06 31.950-11 03 40.20         20.57GVEG195I52
     K24G05K mC2024 04 13.25341715 06 30.820-11 03 04.70         19.55GVEG195I52
     K24G05K KC2024 04 13.98014 15 04 45.50 -09 56 29.7          19.4 GVEG195104
     K24G05K KC2024 04 13.99180 15 04 43.24 -09 55 23.3          19.2 GVEG195104
Observer details:
033 Karl Schwarzschild Observatory, Tautenburg.  Observers S. Melnikov, C.
    Hogner, F. Ludwig, M. Hartmann, B. Stecklum.  Measurer B. Stecklum.
    1.34-m f/3 Schmidt + CCD.
104 San Marcello Pistoiese.  Observers P. Bacci, M. Maestripieri.  Measurer P.
    Bacci.  0.60-m f/4 reflector + CCD.
958 Observatoire de Dax.  Observer P. Dupouy.  0.50-m f/4.5 Reflector + CMO.
E23 Arcadia.  Observer A. Hidas.  0.35-m f/1.9 reflector + CCD.
H01 Magdalena Ridge Observatory, Socorro.  Observers W. H. Ryan, E. V. Ryan.
    Measurer W. H. Ryan.  2.4-m f/8.9 Ritchey-Chretien + CCD.
I52 Steward Observatory, Mt. Lemmon Station.  Observers V. F. Carvajal, D.
    Rankin.  Measurers T. Beuden, V. F. Carvajal, D. Fay, J. B. Fazekas, D. C.
    Fuls, A. R. Gibbs, A. D. Grauer, H. Groeller, J. K. Hogan, R. A. Kowalski,
    S. M. Larson, G. J. Leonard, D. Rankin, R. L. Seaman, F. C. Shelly, K. W.
    Wierzchos.  1.0-m prime focus + CCD.
I93 St Pardon de Conques.  Observer F. Losse.  0.40-m f/3.7 reflector + CCD.
K83 Beppe Forti Astronomical Observatory, Montelupo.  Observers M. Tombelli,
    A. Mazzanti, F. Cheli, M. Iozzi, A. Squilloni, T. Bitossi.  Measurers M.
    Tombelli, F. Bernardi, F. Cheli, M. Iozzi, A. Squilloni.  0.40-m f/8
    Ritchey-Chretien + CCD.
M11 Novaastro Observatory, Banon.  Observer G. Attard.  0.28-m f/2.2 reflector
    + CCD.
W94 MAP, San Pedro de Atacama.  Observers A. Maury, G. Attard.  Measurers A.
    Maury, G. Attard, D. Parrott, F. Signoret, J.-M. Mari.  0.36-m f/1.9
    Schmidt astrograph + CCD.
X10 OVTLN, San Pedro de Atacama.  Observers A. Maury, G. Attard, F. Signoret.
    Measurers A. Maury, G. Attard, D. Parrott, J.-M. Mari, F. Signoret.
    0.50-m f/4  reflector + CCD.
Orbital elements:
2024 GK5                                                 Earth MOID = 0.0280 AU
Epoch 2024 Mar. 31.0 TT = JDT 2460400.5                 Veres                   
M 203.09442              (2000.0)            P               Q                  
n   1.14683144     Peri.  158.70549     +0.99930967     +0.02860475             
a   0.9039332      Node   199.69993     -0.03491303     +0.94119744             
e   0.2021324      Incl.    4.03256     +0.01269905     +0.33664394             
P   0.86           H   24.71          G   0.15           U   7                  
Residuals in seconds of arc
240412 W94  0.7-  0.7-    240412 H01  0.0   0.1-    240412 M11  0.2+  0.3-
240412 W94  0.4-  0.4+    240412 E23  1.1+  0.3-    240412 033  0.2+  0.1-
240412 W94  0.1-  0.3-    240412 E23  0.2-  0.4+    240412 033  0.6+  0.2-
240412 X10  0.0   0.1-    240412 E23  0.3-  0.3+    240412 033  0.4+  0.0
240412 X10  0.0   0.1+    240412 K83  0.2-  1.2+    240412 033  0.2+  0.2-
240412 X10  0.7-  0.7+    240412 K83  0.2-  2.0+    240412 M11  0.9-  0.3-
240412 H01  0.0   0.0     240412 K83  0.5+  1.3+    240412 M11  0.4+  0.3-
240412 H01  0.1-  0.0     240412 I93  0.0   0.0     240413 I52 (1.2+  1.0-)
240412 I52  0.3-  0.1-    240412 I93  0.2-  0.4+    240413 I52  0.0   0.6-
240412 H01  0.0   0.1-    240412 I93  0.3-  0.2-    240413 I52  0.2-  0.6+
240412 I52  0.1-  0.0     240412 958  0.1+  0.7+    240413 104  0.3+  0.0
240412 I52  0.3+  0.3+    240412 958  0.5+  0.4+    240413 104  0.3-  0.1+
240412 I52  0.2+  0.3-    240412 958  0.3+  0.2-
Ephemeris:
2024 GK5                 a,e,i = 0.90, 0.20, 4                   q = 0.7212
Date    TT    R. A. (2000) Decl.     Delta      r    Elong.  Phase     V
2024 03 15    15 11 52.0 -26 42 37   0.1596  1.0862   121.4    51.4    22.8
...
2024 03 30    15 19 55.7 -23 02 13   0.1065  1.0774   135.7    40.4    21.6
...
2024 04 07    15 16 15.9 -18 06 46   0.07994 1.0681   145.8    31.7    20.7
...
2024 04 13    15 06 58.8 -11 23 57   0.06182 1.0591   155.0    23.5    19.9
2024 04 14    15 04 40.2 -09 52 41   0.05902 1.0574   156.6    22.1    19.8
2024 04 15    15 02 05.4 -08 12 27   0.05630 1.0557   158.0    20.8    19.6
...
2024 04 21    14 39 11.2 +05 56 31   0.04210 1.0443   159.2    20.0    18.9
...
2024 04 29    13 30 17.2 +38 16 12   0.03301 1.0266   125.7    52.8    19.3
...
2024 05 14    07 32 07.9 +64 58 55   0.05400 0.9860    61.5   115.7    22.9
M. P. C. Staff               (C) Copyright 2024 MPC           M.P.E.C. 2024-G195
    
    
More information about the Iaude
mailing list